Terug naar catalogus

MOHAMMED VI-A

ActiefWetenschapSSO
NORAD 43005·PAYLOAD·🇲🇦 Morocco

Gelanceerd Nov 8, 2017 vanaf Guiana Space Centre

Loading…

Volgende Passages (komende 24 uur)

TLE

VersSource: Space-Track

Epoch: Sep 14, 2026, 15:07 UTC

1 43005U 17070A   26257.63008119  .00000492  00000-0  76918-4 0  9997
2 43005  97.9488 328.6940 0001491  79.1734 280.9644 14.77070127477183

Volg MOHAMMED VI-A in realtime met AllMySat

Download on the App Store